UAL88 KDFW-KDEN

Flight info

Callsign UAL88
Flight time N/A
Altitude 36000
Route HUDAD2 HUDAD EZEEE ZIGEE NIIXX4
Aircraft B77W/H-SDE1E2E3FGHIJ2J3J4J5M1RWXY/LB1D1

Departure

Time 2026-05-06 00:41
Airport Dallas Fort Worth International Airport (KDFW)

Arrival

Time N/A
Airport Denver International Airport (KDEN)
Time Latitude Longitude Altitude Speed Heading
2026-05-05 23:56 32.89949 -97.04562 620 ft 0 kts 109°
2026-05-06 00:28 32.89956 -97.04587 634 ft 3 kts 109°
2026-05-06 00:29 32.89964 -97.04613 633 ft 3 kts 104°
2026-05-06 00:29 32.89970 -97.04638 628 ft 3 kts 120°
2026-05-06 00:29 32.89981 -97.04657 634 ft 3 kts 136°
2026-05-06 00:29 32.89994 -97.04669 629 ft 3 kts 170°
2026-05-06 00:30 32.90015 -97.04669 634 ft 3 kts 188°
2026-05-06 00:30 32.90035 -97.04666 632 ft 1 kts 180°
2026-05-06 00:30 32.90036 -97.04666 632 ft 1 kts 180°
2026-05-06 00:33 32.90035 -97.04666 632 ft 0 kts 180°
2026-05-06 00:34 32.89991 -97.04667 629 ft 15 kts 180°
2026-05-06 00:34 32.89851 -97.04669 627 ft 22 kts 181°
2026-05-06 00:34 32.89699 -97.04671 632 ft 22 kts 180°
2026-05-06 00:34 32.89548 -97.04683 627 ft 22 kts 192°
2026-05-06 00:35 32.89434 -97.04743 634 ft 13 kts 224°
2026-05-06 00:35 32.89405 -97.04846 628 ft 13 kts 263°
2026-05-06 00:35 32.89362 -97.04916 631 ft 11 kts 192°
2026-05-06 00:35 32.89282 -97.04897 632 ft 12 kts 168°
2026-05-06 00:36 32.89197 -97.04889 627 ft 13 kts 179°
2026-05-06 00:36 32.89107 -97.04888 628 ft 13 kts 179°
2026-05-06 00:36 32.89013 -97.04887 626 ft 14 kts 179°
2026-05-06 00:36 32.88918 -97.04886 627 ft 14 kts 179°
2026-05-06 00:37 32.88823 -97.04889 626 ft 14 kts 182°
2026-05-06 00:37 32.88729 -97.04891 631 ft 14 kts 181°
2026-05-06 00:37 32.88635 -97.04893 627 ft 14 kts 181°
2026-05-06 00:37 32.88540 -97.04896 627 ft 14 kts 181°
2026-05-06 00:38 32.88445 -97.04898 630 ft 14 kts 181°
2026-05-06 00:38 32.88351 -97.04899 626 ft 14 kts 180°
2026-05-06 00:38 32.88256 -97.04899 627 ft 14 kts 180°
2026-05-06 00:38 32.88193 -97.04900 628 ft 14 kts 180°
2026-05-06 00:39 32.88070 -97.04901 627 ft 15 kts 180°
2026-05-06 00:39 32.87979 -97.04933 630 ft 10 kts 236°
2026-05-06 00:39 32.87972 -97.04951 630 ft 0 kts 247°
2026-05-06 00:39 32.87967 -97.04970 630 ft 11 kts 253°
2026-05-06 00:40 32.87972 -97.05052 628 ft 12 kts 301°
2026-05-06 00:40 32.88033 -97.05094 627 ft 0 kts
2026-05-06 00:41 32.88129 -97.05092 627 ft 57 kts
2026-05-06 00:41 32.88972 -97.05085 629 ft 183 kts
2026-05-06 00:41 32.90472 -97.05048 1568 ft 234 kts
2026-05-06 00:41 32.92189 -97.04914 3249 ft 263 kts
2026-05-06 00:42 32.94077 -97.04717 4640 ft 273 kts 356°
2026-05-06 00:42 32.95886 -97.04883 5795 ft 262 kts 351°
2026-05-06 00:42 32.97728 -97.05079 6794 ft 268 kts 352°
2026-05-06 00:42 32.99614 -97.05192 7810 ft 275 kts 353°
2026-05-06 00:43 33.01552 -97.05249 8807 ft 281 kts 353°
2026-05-06 00:43 33.03540 -97.05284 9520 ft 282 kts 352°
2026-05-06 00:43 33.05439 -97.05712 9764 ft 277 kts 328°
2026-05-06 00:43 33.06886 -97.07094 9764 ft 270 kts 301°
2026-05-06 00:44 33.07717 -97.09072 9788 ft 267 kts 282°
2026-05-06 00:44 33.08108 -97.11232 9790 ft 267 kts 278°
2026-05-06 00:44 33.08418 -97.13409 9785 ft 263 kts 272°
2026-05-06 00:44 33.08245 -97.15546 9799 ft 258 kts 259°
2026-05-06 00:45 33.07903 -97.17662 9791 ft 261 kts 259°
2026-05-06 00:45 33.07562 -97.19798 9792 ft 264 kts 259°
2026-05-06 00:45 33.07216 -97.21958 9787 ft 266 kts 259°
2026-05-06 00:45 33.06868 -97.24133 9789 ft 268 kts 259°
2026-05-06 00:46 33.06523 -97.26294 9781 ft 268 kts 259°
2026-05-06 00:46 33.06176 -97.28474 9773 ft 267 kts 259°
2026-05-06 00:46 33.05832 -97.30640 9781 ft 265 kts 259°
2026-05-06 00:46 33.05490 -97.32794 9776 ft 264 kts 259°
2026-05-06 00:47 33.05147 -97.34945 9785 ft 263 kts 259°
2026-05-06 00:47 33.04807 -97.37084 9782 ft 262 kts 259°
2026-05-06 00:47 33.04472 -97.39186 9785 ft 261 kts 259°
2026-05-06 00:47 33.04134 -97.41309 9781 ft 261 kts 259°
2026-05-06 00:48 33.03796 -97.43428 9782 ft 260 kts 259°
2026-05-06 00:48 33.03458 -97.45545 9784 ft 260 kts 259°
2026-05-06 00:48 33.03117 -97.47681 9807 ft 266 kts 259°
2026-05-06 00:48 33.02756 -97.49935 10163 ft 292 kts 259°
2026-05-06 00:49 33.02351 -97.52458 10426 ft 325 kts 258°
2026-05-06 00:49 33.01920 -97.55144 11419 ft 334 kts 258°
2026-05-06 00:49 33.01481 -97.57879 12567 ft 336 kts 258°
2026-05-06 00:49 33.01041 -97.60620 13812 ft 337 kts 258°
2026-05-06 00:50 33.00599 -97.63372 14866 ft 339 kts 257°
2026-05-06 00:50 33.00152 -97.66140 15947 ft 341 kts 257°
2026-05-06 00:50 32.99702 -97.68921 17066 ft 343 kts 257°
2026-05-06 00:50 32.99356 -97.71735 18001 ft 347 kts 265°
2026-05-06 00:51 32.99600 -97.74645 18822 ft 359 kts 277°
2026-05-06 00:51 33.00418 -97.77485 19741 ft 367 kts 287°
2026-05-06 00:51 33.01451 -97.80232 20691 ft 369 kts 288°
2026-05-06 00:51 33.02531 -97.83015 21599 ft 371 kts 288°
2026-05-06 00:52 33.03615 -97.85810 22385 ft 374 kts 288°
2026-05-06 00:52 33.04700 -97.88632 23236 ft 376 kts 288°
2026-05-06 00:52 33.05787 -97.91492 23945 ft 380 kts 287°
2026-05-06 00:52 33.06873 -97.94372 24615 ft 382 kts 287°
2026-05-06 00:53 33.07962 -97.97277 25320 ft 385 kts 287°
2026-05-06 00:53 33.09054 -98.00197 25991 ft 388 kts 287°
2026-05-06 00:53 33.10155 -98.03149 26646 ft 391 kts 287°
2026-05-06 00:53 33.11262 -98.06122 27263 ft 394 kts 287°
2026-05-06 00:54 33.12378 -98.09120 27873 ft 397 kts 286°
2026-05-06 00:54 33.13502 -98.12142 28493 ft 400 kts 286°
2026-05-06 00:54 33.14635 -98.15188 29066 ft 403 kts 286°
2026-05-06 00:54 33.15776 -98.18259 29617 ft 406 kts 286°
2026-05-06 00:55 33.16927 -98.21362 30079 ft 410 kts 286°
2026-05-06 00:55 33.18083 -98.24481 30531 ft 411 kts 286°
2026-05-06 00:55 33.19240 -98.27594 31136 ft 408 kts 286°
2026-05-06 00:55 33.20389 -98.30681 31805 ft 405 kts 286°
2026-05-06 00:56 33.21511 -98.33702 32380 ft 403 kts 285°
2026-05-06 00:56 33.22656 -98.36792 32881 ft 403 kts 285°
2026-05-06 00:56 33.23775 -98.39820 33314 ft 403 kts 285°
2026-05-06 00:56 33.24904 -98.42879 33800 ft 402 kts 285°
2026-05-06 00:57 33.26034 -98.45936 34246 ft 401 kts 285°
2026-05-06 00:57 33.27154 -98.48972 34695 ft 399 kts 285°
2026-05-06 00:57 33.28272 -98.52002 35132 ft 397 kts 285°
2026-05-06 00:57 33.29380 -98.55010 35560 ft 395 kts 285°
2026-05-06 00:58 33.30488 -98.58023 35824 ft 395 kts 285°
2026-05-06 00:58 33.32682 -98.63994 35812 ft 391 kts 285°
2026-05-06 00:59 33.34869 -98.69964 35823 ft 392 kts 284°
2026-05-06 00:59 33.37059 -98.75954 35820 ft 393 kts 284°
2026-05-06 01:00 33.39249 -98.81947 35815 ft 393 kts 284°
2026-05-06 01:00 33.41434 -98.87936 35817 ft 393 kts 284°
2026-05-06 01:01 33.43616 -98.93929 35812 ft 392 kts 284°
2026-05-06 01:01 33.45788 -98.99906 35813 ft 391 kts 284°
2026-05-06 01:02 33.47955 -99.05881 35816 ft 391 kts 284°
2026-05-06 01:02 33.50104 -99.11815 35814 ft 390 kts 284°
2026-05-06 01:03 33.52260 -99.17783 35814 ft 390 kts 284°
2026-05-06 01:03 33.54414 -99.23754 35818 ft 390 kts 284°
2026-05-06 01:04 33.56561 -99.29716 35824 ft 389 kts 284°
2026-05-06 01:04 33.58701 -99.35671 35830 ft 389 kts 284°
2026-05-06 01:05 33.61014 -99.41552 35829 ft 399 kts 292°
2026-05-06 01:05 33.62757 -99.44207 35832 ft 412 kts 301°
2026-05-06 01:05 33.64979 -99.46485 35843 ft 425 kts 310°
2026-05-06 01:06 33.69820 -99.50597 35844 ft 427 kts 311°
2026-05-06 01:06 33.74687 -99.54698 35836 ft 427 kts 310°
2026-05-06 01:07 33.79488 -99.58803 35843 ft 426 kts 310°
2026-05-06 01:07 33.84301 -99.62957 35851 ft 426 kts 310°
2026-05-06 01:08 33.89111 -99.67125 35850 ft 426 kts 310°
2026-05-06 01:08 33.93919 -99.71300 35856 ft 426 kts 310°
2026-05-06 01:09 33.98736 -99.75487 35854 ft 427 kts 310°
2026-05-06 01:09 34.03551 -99.79677 35857 ft 427 kts 310°
2026-05-06 01:10 34.08370 -99.83876 35862 ft 427 kts 310°
2026-05-06 01:10 34.13190 -99.88083 35867 ft 428 kts 310°
2026-05-06 01:11 34.18011 -99.92297 35869 ft 428 kts 310°
2026-05-06 01:11 34.22837 -99.96519 35877 ft 428 kts 309°
2026-05-06 01:12 34.27658 -100.00746 35886 ft 429 kts 309°
2026-05-06 01:12 34.32456 -100.04958 35888 ft 428 kts 309°
2026-05-06 01:13 34.37280 -100.09197 35902 ft 428 kts 309°
2026-05-06 01:13 34.42097 -100.13437 35906 ft 428 kts 309°
2026-05-06 01:14 34.49318 -100.19805 35917 ft 428 kts 309°
2026-05-06 01:14 34.54128 -100.24056 35906 ft 428 kts 309°
2026-05-06 01:15 34.58937 -100.28311 35905 ft 428 kts 309°
2026-05-06 01:15 34.63747 -100.32574 35900 ft 428 kts 309°
2026-05-06 01:16 34.68539 -100.36826 35898 ft 428 kts 309°
2026-05-06 01:16 34.73353 -100.41106 35893 ft 429 kts 309°
2026-05-06 01:17 34.78169 -100.45393 35886 ft 429 kts 309°
2026-05-06 01:17 34.82999 -100.49699 35880 ft 430 kts 309°
2026-05-06 01:18 34.87830 -100.54011 35884 ft 430 kts 309°
2026-05-06 01:18 34.92660 -100.58329 35891 ft 432 kts 309°
2026-05-06 01:19 34.97504 -100.62667 35896 ft 432 kts 309°
2026-05-06 01:19 35.02352 -100.67013 35898 ft 432 kts 309°
2026-05-06 01:20 35.07171 -100.71340 35904 ft 432 kts 309°
2026-05-06 01:20 35.12012 -100.75694 35890 ft 432 kts 309°
2026-05-06 01:21 35.16858 -100.80059 35892 ft 432 kts 309°
2026-05-06 01:21 35.21701 -100.84428 35898 ft 433 kts 309°
2026-05-06 01:22 35.26542 -100.88803 35893 ft 432 kts 309°
2026-05-06 01:22 35.31375 -100.93175 35909 ft 431 kts 309°